Time,TemperatureF,DewpointF,PressureIn,WindDirection,WindDirectionDegrees,WindSpeedMPH,WindSpeedGustMPH,Humidity,HourlyPrecipIn,Conditions,Clouds,dailyrainin,SoftwareType,DateUTC
2013-08-17 00:01:00,60.5,55.3,30.08,ESE,114,0.0,4.0,83,0.00,,,0.00,Wunderground v.1.15,2013-08-17 04:01:00,
2013-08-17 00:02:00,60.5,55.3,30.08,ESE,114,0.0,6.0,83,0.00,,,0.00,Wunderground v.1.15,2013-08-17 04:02:00,
2013-08-17 00:04:00,60.4,55.2,30.08,NE,36,0.0,6.0,83,0.00,,,0.00,Wunderground v.1.15,2013-08-17 04:04:00,
2013-08-17 00:05:00,60.4,55.2,30.08,NE,36,0.0,6.0,83,0.00,,,0.00,Wunderground v.1.15,2013-08-17 04:05:00,
2013-08-17 00:08:00,60.4,55.2,30.08,NE,36,0.0,6.0,83,0.00,,,0.00,Wunderground v.1.15,2013-08-17 04:08:00,
2013-08-17 00:13:00,60.4,55.2,30.08,NE,36,0.0,6.0,83,0.00,,,0.00,Wunderground v.1.15,2013-08-17 04:13:00,
2013-08-17 00:18:00,60.2,55.0,30.08,NE,47,0.0,6.0,83,0.00,,,0.00,Wunderground v.1.15,2013-08-17 04:18:00,
2013-08-17 00:23:00,60.2,55.0,30.08,NE,55,1.0,6.0,83,0.00,,,0.00,Wunderground v.1.15,2013-08-17 04:23:00,
2013-08-17 00:29:00,60.2,55.0,30.08,NE,41,0.0,6.0,83,0.00,,,0.00,Wunderground v.1.15,2013-08-17 04:29:00,
2013-08-17 00:34:00,60.1,54.9,30.07,ENE,74,1.0,5.0,83,0.00,,,0.00,Wunderground v.1.15,2013-08-17 04:34:00,
2013-08-17 00:40:00,60.1,54.9,30.07,ENE,74,0.0,5.0,83,0.00,,,0.00,Wunderground v.1.15,2013-08-17 04:40:00,
2013-08-17 00:46:00,59.9,54.7,30.08,ENE,74,0.0,5.0,83,0.00,,,0.00,Wunderground v.1.15,2013-08-17 04:46:00,
2013-08-17 00:51:00,59.9,54.7,30.08,ENE,67,0.0,5.0,83,0.00,,,0.00,Wunderground v.1.15,2013-08-17 04:51:00,
2013-08-17 00:57:00,59.9,54.7,30.08,ENE,67,0.0,5.0,83,0.00,,,0.00,Wunderground v.1.15,2013-08-17 04:57:00,
2013-08-17 01:03:00,59.8,55.0,30.07,ESE,111,0.0,4.0,84,0.00,,,0.00,Wunderground v.1.15,2013-08-17 05:03:00,
2013-08-17 01:08:00,59.8,55.0,30.07,ESE,111,0.0,4.0,84,0.00,,,0.00,Wunderground v.1.15,2013-08-17 05:08:00,
2013-08-17 01:14:00,59.5,55.0,30.07,SW,234,0.0,4.0,85,0.00,,,0.00,Wunderground v.1.15,2013-08-17 05:14:00,
2013-08-17 01:19:00,59.3,55.1,30.07,SW,234,0.0,4.0,86,0.00,,,0.00,Wunderground v.1.15,2013-08-17 05:19:00,
2013-08-17 01:25:00,59.3,55.1,30.07,SSE,163,0.0,4.0,86,0.00,,,0.00,Wunderground v.1.15,2013-08-17 05:25:00,
2013-08-17 01:30:00,59.2,55.0,30.07,SSE,163,0.0,4.0,86,0.00,,,0.00,Wunderground v.1.15,2013-08-17 05:30:00,
2013-08-17 01:36:00,59.2,55.0,30.07,SSE,163,0.0,4.0,86,0.00,,,0.00,Wunderground v.1.15,2013-08-17 05:36:00,
2013-08-17 01:42:00,59.2,55.0,30.07,West,269,0.0,4.0,86,0.00,,,0.00,Wunderground v.1.15,2013-08-17 05:42:00,
2013-08-17 01:47:00,59.2,55.0,30.07,West,269,0.0,4.0,86,0.00,,,0.00,Wunderground v.1.15,2013-08-17 05:47:00,
2013-08-17 01:53:00,59.2,55.0,30.07,ESE,120,0.0,4.0,86,0.00,,,0.00,Wunderground v.1.15,2013-08-17 05:53:00,
2013-08-17 01:58:00,59.2,55.0,30.07,ESE,120,0.0,4.0,86,0.00,,,0.00,Wunderground v.1.15,2013-08-17 05:58:00,
2013-08-17 02:04:00,59.3,54.8,30.08,ESE,120,0.0,2.0,85,0.00,,,0.00,Wunderground v.1.15,2013-08-17 06:04:00,
2013-08-17 02:09:00,59.3,54.8,30.08,ESE,120,0.0,2.0,85,0.00,,,0.00,Wunderground v.1.15,2013-08-17 06:09:00,
2013-08-17 02:14:00,59.3,54.8,30.08,ESE,120,0.0,2.0,85,0.00,,,0.00,Wunderground v.1.15,2013-08-17 06:14:00,
2013-08-17 02:19:00,59.5,54.7,30.08,NE,50,0.0,2.0,84,0.00,,,0.00,Wunderground v.1.15,2013-08-17 06:19:00,
2013-08-17 02:25:00,59.5,54.7,30.08,East,80,0.0,2.0,84,0.00,,,0.00,Wunderground v.1.15,2013-08-17 06:25:00,
2013-08-17 02:31:00,59.5,54.3,30.07,East,82,0.0,5.0,83,0.00,,,0.00,Wunderground v.1.15,2013-08-17 06:31:00,
2013-08-17 02:37:00,59.5,54.3,30.07,East,82,0.0,5.0,83,0.00,,,0.00,Wunderground v.1.15,2013-08-17 06:37:00,
2013-08-17 02:42:00,59.5,54.7,30.07,ENE,66,0.0,5.0,84,0.00,,,0.00,Wunderground v.1.15,2013-08-17 06:42:00,
2013-08-17 02:47:00,59.5,54.3,30.07,NE,54,0.0,5.0,83,0.00,,,0.00,Wunderground v.1.15,2013-08-17 06:47:00,
2013-08-17 02:53:00,59.5,55.0,30.07,NE,54,0.0,5.0,85,0.00,,,0.00,Wunderground v.1.15,2013-08-17 06:53:00,
2013-08-17 02:59:00,59.5,55.0,30.07,NE,54,0.0,5.0,85,0.00,,,0.00,Wunderground v.1.15,2013-08-17 06:59:00,
2013-08-17 03:05:00,59.3,54.5,30.07,NE,54,0.0,4.0,84,0.00,,,0.00,Wunderground v.1.15,2013-08-17 07:05:00,
2013-08-17 03:11:00,59.3,54.5,30.07,NE,53,0.0,4.0,84,0.00,,,0.00,Wunderground v.1.15,2013-08-17 07:11:00,
2013-08-17 03:17:00,59.3,54.8,30.07,NE,53,0.0,4.0,85,0.00,,,0.00,Wunderground v.1.15,2013-08-17 07:17:00,
2013-08-17 03:23:00,59.3,54.5,30.07,NE,53,0.0,4.0,84,0.00,,,0.00,Wunderground v.1.15,2013-08-17 07:23:00,
2013-08-17 03:29:00,59.3,54.8,30.07,NE,53,0.0,4.0,85,0.00,,,0.00,Wunderground v.1.15,2013-08-17 07:29:00,
2013-08-17 03:35:00,59.3,55.1,30.07,NE,53,0.0,4.0,86,0.00,,,0.00,Wunderground v.1.15,2013-08-17 07:35:00,
2013-08-17 03:41:00,59.3,54.8,30.07,NE,53,0.0,4.0,85,0.00,,,0.00,Wunderground v.1.15,2013-08-17 07:41:00,
2013-08-17 03:46:00,59.3,54.8,30.07,NE,53,0.0,4.0,85,0.00,,,0.00,Wunderground v.1.15,2013-08-17 07:46:00,
2013-08-17 03:52:00,59.3,54.8,30.07,NE,53,0.0,4.0,85,0.00,,,0.00,Wunderground v.1.15,2013-08-17 07:52:00,
2013-08-17 03:57:00,59.3,54.5,30.07,NE,53,0.0,4.0,84,0.00,,,0.00,Wunderground v.1.15,2013-08-17 07:57:00,
2013-08-17 04:03:00,59.3,54.8,30.08,NE,49,0.0,5.0,85,0.00,,,0.00,Wunderground v.1.15,2013-08-17 08:03:00,
2013-08-17 04:08:00,59.3,54.8,30.08,NE,49,0.0,5.0,85,0.00,,,0.00,Wunderground v.1.15,2013-08-17 08:08:00,
2013-08-17 04:14:00,59.3,54.8,30.08,NE,49,0.0,5.0,85,0.00,,,0.00,Wunderground v.1.15,2013-08-17 08:14:00,
2013-08-17 04:20:00,59.3,54.8,30.07,NE,49,0.0,5.0,85,0.00,,,0.00,Wunderground v.1.15,2013-08-17 08:20:00,
2013-08-17 04:26:00,59.3,54.5,30.07,NE,49,0.0,5.0,84,0.00,,,0.00,Wunderground v.1.15,2013-08-17 08:26:00,
2013-08-17 04:31:00,59.2,54.4,30.07,NE,49,0.0,5.0,84,0.00,,,0.00,Wunderground v.1.15,2013-08-17 08:31:00,
2013-08-17 04:36:00,59.2,54.4,30.07,NE,49,0.0,2.0,84,0.00,,,0.00,Wunderground v.1.15,2013-08-17 08:36:00,
2013-08-17 04:42:00,59.2,54.0,30.07,NE,40,0.0,2.0,83,0.00,,,0.00,Wunderground v.1.15,2013-08-17 08:42:00,
2013-08-17 04:48:00,59.2,54.0,30.07,NE,40,0.0,2.0,83,0.00,,,0.00,Wunderground v.1.15,2013-08-17 08:48:00,
2013-08-17 04:53:00,59.2,53.7,30.07,NE,50,0.0,2.0,82,0.00,,,0.00,Wunderground v.1.15,2013-08-17 08:53:00,
2013-08-17 04:59:00,59.2,54.0,30.07,NE,45,0.0,4.0,83,0.00,,,0.00,Wunderground v.1.15,2013-08-17 08:59:00,
2013-08-17 05:05:00,59.2,54.0,30.06,NE,45,0.0,5.0,83,0.00,,,0.00,Wunderground v.1.15,2013-08-17 09:05:00,
2013-08-17 05:10:00,59.0,53.5,30.06,NE,45,0.0,5.0,82,0.00,,,0.00,Wunderground v.1.15,2013-08-17 09:10:00,
2013-08-17 05:16:00,59.0,53.2,30.06,SE,124,0.0,5.0,81,0.00,,,0.00,Wunderground v.1.15,2013-08-17 09:16:00,
2013-08-17 05:22:00,59.0,53.2,30.06,NE,46,0.0,5.0,81,0.00,,,0.00,Wunderground v.1.15,2013-08-17 09:22:00,
2013-08-17 05:27:00,59.0,52.8,30.06,NE,46,0.0,5.0,80,0.00,,,0.00,Wunderground v.1.15,2013-08-17 09:27:00,
2013-08-17 05:33:00,59.0,53.5,30.06,NE,46,0.0,3.0,82,0.00,,,0.00,Wunderground v.1.15,2013-08-17 09:33:00,
2013-08-17 05:39:00,59.0,53.2,30.06,NE,46,0.0,3.0,81,0.00,,,0.00,Wunderground v.1.15,2013-08-17 09:39:00,
2013-08-17 05:45:00,58.9,52.7,30.07,NE,46,0.0,3.0,80,0.00,,,0.00,Wunderground v.1.15,2013-08-17 09:45:00,
2013-08-17 05:50:00,58.9,53.4,30.07,NE,46,0.0,3.0,82,0.00,,,0.00,Wunderground v.1.15,2013-08-17 09:50:00,
2013-08-17 05:56:00,58.9,53.4,30.07,NE,46,0.0,3.0,82,0.00,,,0.00,Wunderground v.1.15,2013-08-17 09:56:00,
2013-08-17 06:02:00,58.9,53.7,30.07,NE,46,0.0,1.0,83,0.00,,,0.00,Wunderground v.1.15,2013-08-17 10:02:00,
2013-08-17 06:08:00,58.7,53.2,30.07,NE,46,0.0,1.0,82,0.00,,,0.00,Wunderground v.1.15,2013-08-17 10:08:00,
2013-08-17 06:14:00,58.7,53.5,30.07,NE,46,0.0,1.0,83,0.00,,,0.00,Wunderground v.1.15,2013-08-17 10:14:00,
2013-08-17 06:20:00,58.7,53.9,30.07,NE,46,0.0,1.0,84,0.00,,,0.00,Wunderground v.1.15,2013-08-17 10:20:00,
2013-08-17 06:26:00,58.6,53.5,30.07,NE,46,0.0,1.0,83,0.00,,,0.00,Wunderground v.1.15,2013-08-17 10:26:00,
2013-08-17 06:32:00,58.6,53.5,30.07,NE,46,0.0,0.0,83,0.00,,,0.00,Wunderground v.1.15,2013-08-17 10:32:00,
2013-08-17 06:38:00,58.4,52.9,30.07,NE,46,0.0,0.0,82,0.00,,,0.00,Wunderground v.1.15,2013-08-17 10:38:00,
2013-08-17 06:43:00,58.3,53.2,30.07,NE,46,0.0,0.0,83,0.00,,,0.00,Wunderground v.1.15,2013-08-17 10:43:00,
2013-08-17 06:49:00,58.3,53.2,30.08,NE,46,0.0,0.0,83,0.00,,,0.00,Wunderground v.1.15,2013-08-17 10:49:00,
2013-08-17 06:54:00,58.3,53.5,30.08,NE,46,0.0,0.0,84,0.00,,,0.00,Wunderground v.1.15,2013-08-17 10:54:00,
2013-08-17 07:00:00,58.3,53.8,30.08,NE,46,0.0,0.0,85,0.00,,,0.00,Wunderground v.1.15,2013-08-17 11:00:00,
2013-08-17 07:06:00,58.3,53.8,30.08,NE,46,0.0,0.0,85,0.00,,,0.00,Wunderground v.1.15,2013-08-17 11:06:00,
2013-08-17 07:12:00,58.3,53.8,30.08,NE,46,0.0,0.0,85,0.00,,,0.00,Wunderground v.1.15,2013-08-17 11:12:00,
2013-08-17 07:18:00,58.1,53.6,30.08,NE,46,0.0,0.0,85,0.00,,,0.00,Wunderground v.1.15,2013-08-17 11:18:00,
2013-08-17 07:24:00,58.1,53.6,30.08,NE,46,0.0,0.0,85,0.00,,,0.00,Wunderground v.1.15,2013-08-17 11:24:00,
2013-08-17 07:29:00,58.0,53.8,30.08,NE,46,0.0,0.0,86,0.00,,,0.00,Wunderground v.1.15,2013-08-17 11:29:00,
2013-08-17 07:35:00,58.0,53.5,30.08,NE,46,0.0,0.0,85,0.00,,,0.00,Wunderground v.1.15,2013-08-17 11:35:00,
2013-08-17 07:41:00,57.8,53.3,30.08,NE,46,0.0,0.0,85,0.00,,,0.00,Wunderground v.1.15,2013-08-17 11:41:00,
2013-08-17 07:47:00,57.8,53.3,30.08,NE,46,0.0,0.0,85,0.00,,,0.00,Wunderground v.1.15,2013-08-17 11:47:00,
2013-08-17 07:52:00,57.8,53.0,30.08,NE,46,0.0,0.0,84,0.00,,,0.00,Wunderground v.1.15,2013-08-17 11:52:00,
2013-08-17 07:58:00,58.0,53.5,30.08,NE,46,0.0,0.0,85,0.00,,,0.00,Wunderground v.1.15,2013-08-17 11:58:00,
2013-08-17 08:03:00,58.0,53.5,30.08,NE,46,0.0,0.0,85,0.00,,,0.00,Wunderground v.1.15,2013-08-17 12:03:00,
2013-08-17 08:07:00,58.1,53.3,30.08,NE,46,0.0,0.0,84,0.00,,,0.00,Wunderground v.1.15,2013-08-17 12:07:00,
2013-08-17 08:13:00,58.1,53.0,30.08,NE,46,0.0,0.0,83,0.00,,,0.00,Wunderground v.1.15,2013-08-17 12:13:00,
2013-08-17 08:18:00,58.3,53.8,30.08,NE,46,0.0,0.0,85,0.00,,,0.00,Wunderground v.1.15,2013-08-17 12:18:00,
2013-08-17 08:24:00,58.6,54.1,30.08,NE,46,0.0,0.0,85,0.00,,,0.00,Wunderground v.1.15,2013-08-17 12:24:00,
2013-08-17 08:29:00,58.9,53.7,30.08,NE,46,0.0,0.0,83,0.00,,,0.00,Wunderground v.1.15,2013-08-17 12:29:00,
2013-08-17 08:35:00,59.2,54.4,30.08,NE,46,0.0,0.0,84,0.00,,,0.00,Wunderground v.1.15,2013-08-17 12:35:00,
2013-08-17 08:40:00,59.3,53.8,30.08,NE,46,0.0,0.0,82,0.00,,,0.00,Wunderground v.1.15,2013-08-17 12:40:00,
2013-08-17 08:46:00,59.5,53.7,30.09,NE,46,0.0,0.0,81,0.00,,,0.00,Wunderground v.1.15,2013-08-17 12:46:00,
2013-08-17 08:51:00,59.6,53.4,30.09,NE,46,0.0,0.0,80,0.00,,,0.00,Wunderground v.1.15,2013-08-17 12:51:00,
2013-08-17 08:57:00,59.6,52.0,30.09,NE,46,0.0,0.0,76,0.00,,,0.00,Wunderground v.1.15,2013-08-17 12:57:00,
2013-08-17 09:02:00,59.6,52.0,30.09,NE,46,0.0,1.0,76,0.00,,,0.00,Wunderground v.1.15,2013-08-17 13:02:00,
2013-08-17 09:08:00,59.6,51.7,30.09,NE,46,0.0,4.0,75,0.00,,,0.00,Wunderground v.1.15,2013-08-17 13:08:00,
2013-08-17 09:13:00,59.6,52.0,30.09,NE,46,0.0,1.0,76,0.00,,,0.00,Wunderground v.1.15,2013-08-17 13:13:00,
2013-08-17 09:18:00,59.6,52.0,30.09,NE,46,0.0,1.0,76,0.00,,,0.00,Wunderground v.1.15,2013-08-17 13:18:00,
2013-08-17 09:24:00,59.6,51.7,30.09,NE,46,0.0,1.0,75,0.00,,,0.00,Wunderground v.1.15,2013-08-17 13:24:00,
2013-08-17 09:29:00,59.6,52.0,30.09,SE,143,1.0,3.0,76,0.00,,,0.00,Wunderground v.1.15,2013-08-17 13:29:00,
2013-08-17 09:35:00,60.1,51.4,30.09,SSE,148,0.0,4.0,73,0.00,,,0.00,Wunderground v.1.15,2013-08-17 13:35:00,
2013-08-17 09:40:00,60.4,51.7,30.09,NE,55,0.0,4.0,73,0.00,,,0.00,Wunderground v.1.15,2013-08-17 13:40:00,
2013-08-17 09:46:00,60.9,51.4,30.09,NE,55,0.0,4.0,71,0.00,,,0.00,Wunderground v.1.15,2013-08-17 13:46:00,
2013-08-17 09:51:00,61.2,52.1,30.09,NE,46,0.0,4.0,72,0.00,,,0.00,Wunderground v.1.15,2013-08-17 13:51:00,
2013-08-17 09:57:00,61.5,52.8,30.09,ENE,64,0.0,4.0,73,0.00,,,0.00,Wunderground v.1.15,2013-08-17 13:57:00,
2013-08-17 10:02:00,61.6,53.2,30.10,NE,45,0.0,5.0,74,0.00,,,0.00,Wunderground v.1.15,2013-08-17 14:02:00,
2013-08-17 10:08:00,61.8,52.7,30.10,NE,45,0.0,5.0,72,0.00,,,0.00,Wunderground v.1.15,2013-08-17 14:08:00,
2013-08-17 10:14:00,62.0,52.9,30.10,ENE,57,0.0,5.0,72,0.00,,,0.00,Wunderground v.1.15,2013-08-17 14:14:00,
2013-08-17 10:20:00,62.1,53.7,30.10,NNE,19,1.0,5.0,74,0.00,,,0.00,Wunderground v.1.15,2013-08-17 14:20:00,
2013-08-17 10:25:00,62.4,54.4,30.10,NNE,19,0.0,5.0,75,0.00,,,0.00,Wunderground v.1.15,2013-08-17 14:25:00,
2013-08-17 10:31:00,62.7,53.5,30.10,NE,38,1.0,5.0,72,0.00,,,0.00,Wunderground v.1.15,2013-08-17 14:31:00,
2013-08-17 10:37:00,62.6,53.8,30.10,NE,38,1.0,5.0,73,0.00,,,0.00,Wunderground v.1.15,2013-08-17 14:37:00,
2013-08-17 10:43:00,62.9,54.5,30.10,NE,45,1.0,5.0,74,0.00,,,0.00,Wunderground v.1.15,2013-08-17 14:43:00,
2013-08-17 10:48:00,63.4,54.6,30.09,NE,40,0.0,5.0,73,0.00,,,0.00,Wunderground v.1.15,2013-08-17 14:48:00,
2013-08-17 10:54:00,63.5,53.9,30.09,NE,43,1.0,5.0,71,0.00,,,0.00,Wunderground v.1.15,2013-08-17 14:54:00,
2013-08-17 11:00:00,63.7,54.1,30.09,NE,44,1.0,5.0,71,0.00,,,0.00,Wunderground v.1.15,2013-08-17 15:00:00,
2013-08-17 11:05:00,63.4,53.8,30.09,NE,40,2.0,7.0,71,0.00,,,0.00,Wunderground v.1.15,2013-08-17 15:05:00,
2013-08-17 11:11:00,63.2,54.4,30.09,NE,43,3.0,7.0,73,0.00,,,0.00,Wunderground v.1.15,2013-08-17 15:11:00,
2013-08-17 11:17:00,63.7,54.9,30.09,ENE,59,2.0,7.0,73,0.00,,,0.00,Wunderground v.1.15,2013-08-17 15:17:00,
2013-08-17 11:23:00,64.3,55.5,30.09,East,85,1.0,7.0,73,0.00,,,0.00,Wunderground v.1.15,2013-08-17 15:23:00,
2013-08-17 11:28:00,65.2,57.1,30.09,NE,39,1.0,7.0,75,0.00,,,0.00,Wunderground v.1.15,2013-08-17 15:28:00,
2013-08-17 11:34:00,65.2,55.2,30.09,NE,35,1.0,9.0,70,0.00,,,0.00,Wunderground v.1.15,2013-08-17 15:34:00,
2013-08-17 11:40:00,65.0,56.1,30.09,NE,38,2.0,9.0,73,0.00,,,0.00,Wunderground v.1.15,2013-08-17 15:40:00,
2013-08-17 11:45:00,65.0,56.1,30.09,South,190,1.0,9.0,73,0.00,,,0.00,Wunderground v.1.15,2013-08-17 15:45:00,
2013-08-17 11:51:00,65.2,56.7,30.09,South,190,1.0,9.0,74,0.00,,,0.00,Wunderground v.1.15,2013-08-17 15:51:00,
2013-08-17 11:56:00,65.2,55.9,30.09,NE,51,0.0,9.0,72,0.00,,,0.00,Wunderground v.1.15,2013-08-17 15:56:00,
2013-08-17 12:02:00,65.0,56.5,30.09,ENE,60,1.0,1.0,74,0.00,,,0.00,Wunderground v.1.15,2013-08-17 16:02:00,
2013-08-17 12:08:00,64.8,55.6,30.09,NNE,32,2.0,10.0,72,0.00,,,0.00,Wunderground v.1.15,2013-08-17 16:08:00,
2013-08-17 12:13:00,64.7,56.2,30.09,NE,54,2.0,10.0,74,0.00,,,0.00,Wunderground v.1.15,2013-08-17 16:13:00,
2013-08-17 12:18:00,65.0,57.2,30.09,NE,51,1.0,10.0,76,0.00,,,0.00,Wunderground v.1.15,2013-08-17 16:18:00,
2013-08-17 12:24:00,65.5,57.4,30.09,NE,54,1.0,10.0,75,0.00,,,0.00,Wunderground v.1.15,2013-08-17 16:24:00,
2013-08-17 12:30:00,65.5,56.6,30.07,NE,40,2.0,10.0,73,0.00,,,0.00,Wunderground v.1.15,2013-08-17 16:30:00,
2013-08-17 12:35:00,65.5,57.0,30.07,NE,44,2.0,9.0,74,0.00,,,0.00,Wunderground v.1.15,2013-08-17 16:35:00,
2013-08-17 12:41:00,65.8,57.3,30.07,NNE,30,1.0,9.0,74,0.00,,,0.00,Wunderground v.1.15,2013-08-17 16:41:00,
2013-08-17 12:46:00,65.8,57.3,30.07,NE,49,1.0,9.0,74,0.00,,,0.00,Wunderground v.1.15,2013-08-17 16:46:00,
2013-08-17 12:52:00,65.6,57.1,30.07,NE,40,1.0,1.0,74,0.00,,,0.00,Wunderground v.1.15,2013-08-17 16:52:00,
2013-08-17 12:57:00,65.5,57.4,30.07,NE,46,1.0,9.0,75,0.00,,,0.00,Wunderground v.1.15,2013-08-17 16:57:00,
2013-08-17 13:02:00,65.5,57.4,30.07,NE,46,1.0,1.0,75,0.00,,,0.00,Wunderground v.1.15,2013-08-17 17:02:00,
2013-08-17 13:08:00,65.5,58.8,30.07,North,355,1.0,9.0,79,0.00,,,0.00,Wunderground v.1.15,2013-08-17 17:08:00,
2013-08-17 13:13:00,65.5,57.0,30.07,NE,42,1.0,9.0,74,0.00,,,0.00,Wunderground v.1.15,2013-08-17 17:13:00,
2013-08-17 13:19:00,66.0,58.6,30.07,East,89,1.0,9.0,77,0.00,,,0.00,Wunderground v.1.15,2013-08-17 17:19:00,
2013-08-17 13:25:00,66.4,57.9,30.07,NE,49,1.0,9.0,74,0.00,,,0.00,Wunderground v.1.15,2013-08-17 17:25:00,
2013-08-17 13:31:00,66.3,58.1,30.07,SE,126,1.0,9.0,75,0.00,,,0.00,Wunderground v.1.15,2013-08-17 17:31:00,
2013-08-17 13:36:00,66.6,58.1,30.07,ENE,60,2.0,7.0,74,0.00,,,0.00,Wunderground v.1.15,2013-08-17 17:36:00,
2013-08-17 13:42:00,66.8,58.6,30.07,NE,38,1.0,7.0,75,0.00,,,0.00,Wunderground v.1.15,2013-08-17 17:42:00,
2013-08-17 13:47:00,66.4,58.2,30.07,NE,40,1.0,7.0,75,0.00,,,0.00,Wunderground v.1.15,2013-08-17 17:47:00,
2013-08-17 13:53:00,66.3,58.1,30.07,ENE,57,2.0,7.0,75,0.00,,,0.00,Wunderground v.1.15,2013-08-17 17:53:00,
2013-08-17 13:58:00,66.0,58.2,30.07,NNE,31,3.0,7.0,76,0.00,,,0.00,Wunderground v.1.15,2013-08-17 17:58:00,
2013-08-17 14:04:00,66.1,57.9,30.06,ENE,64,3.0,10.0,75,0.00,,,0.00,Wunderground v.1.15,2013-08-17 18:04:00,
2013-08-17 14:09:00,66.1,58.3,30.06,NE,52,3.0,10.0,76,0.00,,,0.00,Wunderground v.1.15,2013-08-17 18:09:00,
2013-08-17 14:15:00,65.8,58.0,30.07,ENE,66,3.0,10.0,76,0.00,,,0.00,Wunderground v.1.15,2013-08-17 18:15:00,
2013-08-17 14:20:00,65.2,58.2,30.07,NE,44,3.0,10.0,78,0.00,,,0.00,Wunderground v.1.15,2013-08-17 18:20:00,
2013-08-17 14:26:00,64.8,58.1,30.07,NE,56,3.0,10.0,79,0.00,,,0.00,Wunderground v.1.15,2013-08-17 18:26:00,
2013-08-17 14:31:00,64.7,57.7,30.07,NNE,30,3.0,10.0,78,0.00,,,0.00,Wunderground v.1.15,2013-08-17 18:31:00,
2013-08-17 14:37:00,64.7,58.0,30.07,ENE,61,2.0,9.0,79,0.00,,,0.00,Wunderground v.1.15,2013-08-17 18:37:00,
2013-08-17 14:43:00,64.5,58.2,30.07,NE,44,1.0,2.0,80,0.00,,,0.00,Wunderground v.1.15,2013-08-17 18:43:00,
2013-08-17 14:49:00,64.5,58.5,30.07,ENE,59,1.0,9.0,81,0.00,,,0.00,Wunderground v.1.15,2013-08-17 18:49:00,
2013-08-17 14:55:00,64.5,58.2,30.07,SSE,147,1.0,9.0,80,0.00,,,0.00,Wunderground v.1.15,2013-08-17 18:55:00,
2013-08-17 15:00:00,64.3,58.0,30.06,South,177,1.0,9.0,80,0.00,,,0.00,Wunderground v.1.15,2013-08-17 19:00:00,
2013-08-17 15:06:00,64.2,57.9,30.06,SE,125,1.0,6.0,80,0.00,,,0.00,Wunderground v.1.15,2013-08-17 19:06:00,
2013-08-17 15:11:00,64.2,58.2,30.06,NE,43,1.0,6.0,81,0.00,,,0.00,Wunderground v.1.15,2013-08-17 19:11:00,
2013-08-17 15:17:00,64.0,58.4,30.06,NE,51,1.0,6.0,82,0.00,,,0.00,Wunderground v.1.15,2013-08-17 19:17:00,
2013-08-17 15:22:00,63.9,58.3,30.06,NE,54,1.0,1.0,82,0.00,,,0.00,Wunderground v.1.15,2013-08-17 19:22:00,
2013-08-17 15:28:00,63.7,58.1,30.06,ENE,58,1.0,6.0,82,0.00,,,0.00,Wunderground v.1.15,2013-08-17 19:28:00,
2013-08-17 15:34:00,63.7,58.1,30.06,ENE,58,2.0,7.0,82,0.00,,,0.00,Wunderground v.1.15,2013-08-17 19:34:00,
2013-08-17 15:39:00,63.5,58.2,30.06,ENE,70,2.0,7.0,83,0.00,,,0.00,Wunderground v.1.15,2013-08-17 19:39:00,
2013-08-17 15:45:00,63.7,58.4,30.05,NE,48,1.0,7.0,83,0.00,,,0.00,Wunderground v.1.15,2013-08-17 19:45:00,
2013-08-17 15:50:00,63.7,58.4,30.05,NE,49,1.0,7.0,83,0.00,,,0.00,Wunderground v.1.15,2013-08-17 19:50:00,
2013-08-17 15:55:00,63.5,58.2,30.05,ENE,59,1.0,7.0,83,0.00,,,0.00,Wunderground v.1.15,2013-08-17 19:55:00,
2013-08-17 16:01:00,63.5,58.6,30.05,ENE,57,1.0,7.0,84,0.00,,,0.00,Wunderground v.1.15,2013-08-17 20:01:00,
2013-08-17 16:06:00,63.5,58.6,30.05,NE,50,1.0,7.0,84,0.00,,,0.00,Wunderground v.1.15,2013-08-17 20:06:00,
2013-08-17 16:12:00,63.5,58.2,30.05,ENE,62,0.0,7.0,83,0.00,,,0.00,Wunderground v.1.15,2013-08-17 20:12:00,
2013-08-17 16:17:00,63.4,58.1,30.04,NE,46,1.0,7.0,83,0.00,,,0.00,Wunderground v.1.15,2013-08-17 20:17:00,
2013-08-17 16:23:00,63.2,57.9,30.04,NE,46,1.0,7.0,83,0.00,,,0.00,Wunderground v.1.15,2013-08-17 20:23:00,
2013-08-17 16:28:00,63.2,58.3,30.04,SSE,152,1.0,7.0,84,0.00,,,0.00,Wunderground v.1.15,2013-08-17 20:28:00,
2013-08-17 16:33:00,63.2,58.3,30.04,ENE,59,0.0,6.0,84,0.00,,,0.00,Wunderground v.1.15,2013-08-17 20:33:00,
2013-08-17 16:39:00,63.2,58.6,30.04,NE,38,0.0,6.0,85,0.00,,,0.00,Wunderground v.1.15,2013-08-17 20:39:00,
2013-08-17 16:44:00,63.1,58.5,30.04,NE,42,0.0,6.0,85,0.00,,,0.00,Wunderground v.1.15,2013-08-17 20:44:00,
2013-08-17 16:50:00,63.1,58.2,30.04,NE,34,1.0,6.0,84,0.00,,,0.00,Wunderground v.1.15,2013-08-17 20:50:00,
2013-08-17 16:56:00,63.1,58.8,30.04,NNE,15,0.0,6.0,86,0.00,,,0.00,Wunderground v.1.15,2013-08-17 20:56:00,
2013-08-17 17:02:00,63.2,58.6,30.04,NNE,15,0.0,5.0,85,0.00,,,0.00,Wunderground v.1.15,2013-08-17 21:02:00,
2013-08-17 17:07:00,63.2,58.9,30.04,NNE,13,0.0,5.0,86,0.00,,,0.00,Wunderground v.1.15,2013-08-17 21:07:00,
2013-08-17 17:13:00,63.2,58.9,30.04,NNE,13,0.0,5.0,86,0.00,,,0.00,Wunderground v.1.15,2013-08-17 21:13:00,
2013-08-17 17:18:00,63.2,58.9,30.05,NNE,32,0.0,5.0,86,0.00,,,0.00,Wunderground v.1.15,2013-08-17 21:18:00,
2013-08-17 17:24:00,63.1,58.8,30.05,NNE,32,0.0,5.0,86,0.00,,,0.00,Wunderground v.1.15,2013-08-17 21:24:00,
2013-08-17 17:29:00,63.2,59.3,30.05,NNE,32,0.0,5.0,87,0.00,,,0.00,Wunderground v.1.15,2013-08-17 21:29:00,
2013-08-17 17:35:00,63.2,58.9,30.05,NNE,32,0.0,2.0,86,0.00,,,0.00,Wunderground v.1.15,2013-08-17 21:35:00,
2013-08-17 17:41:00,63.2,58.9,30.05,NNE,30,0.0,2.0,86,0.00,,,0.00,Wunderground v.1.15,2013-08-17 21:41:00,
2013-08-17 17:46:00,63.2,59.6,30.06,NNE,30,0.0,2.0,88,0.00,,,0.00,Wunderground v.1.15,2013-08-17 21:46:00,
2013-08-17 17:52:00,63.2,59.6,30.06,NNE,30,0.0,2.0,88,0.00,,,0.00,Wunderground v.1.15,2013-08-17 21:52:00,
2013-08-17 17:58:00,63.1,59.5,30.06,NNE,30,0.0,2.0,88,0.00,,,0.00,Wunderground v.1.15,2013-08-17 21:58:00,
2013-08-17 18:04:00,62.9,59.6,30.05,NNE,30,0.0,4.0,89,0.00,,,0.00,Wunderground v.1.15,2013-08-17 22:04:00,
2013-08-17 18:10:00,62.6,59.3,30.05,NNE,30,0.0,4.0,89,0.00,,,0.00,Wunderground v.1.15,2013-08-17 22:10:00,
2013-08-17 18:15:00,62.6,59.6,30.04,NNE,30,0.0,4.0,90,0.00,,,0.00,Wunderground v.1.15,2013-08-17 22:15:00,
2013-08-17 18:21:00,62.4,59.4,30.04,NNE,30,0.0,4.0,90,0.00,,,0.00,Wunderground v.1.15,2013-08-17 22:21:00,
2013-08-17 18:27:00,62.3,59.6,30.04,NNE,30,0.0,4.0,91,0.00,,,0.00,Wunderground v.1.15,2013-08-17 22:27:00,
2013-08-17 18:33:00,62.1,59.4,30.04,NNE,31,0.0,1.0,91,0.00,,,0.00,Wunderground v.1.15,2013-08-17 22:33:00,
2013-08-17 18:38:00,62.1,59.7,30.04,ESE,119,0.0,1.0,92,0.00,,,0.00,Wunderground v.1.15,2013-08-17 22:38:00,
2013-08-17 18:44:00,62.0,59.6,30.04,ESE,119,0.0,1.0,92,0.00,,,0.00,Wunderground v.1.15,2013-08-17 22:44:00,
2013-08-17 18:49:00,62.0,59.6,30.04,ESE,119,0.0,1.0,92,0.00,,,0.00,Wunderground v.1.15,2013-08-17 22:49:00,
2013-08-17 18:55:00,62.0,60.0,30.04,ESE,119,0.0,1.0,93,0.00,,,0.00,Wunderground v.1.15,2013-08-17 22:55:00,
2013-08-17 19:00:00,62.0,60.0,30.04,ESE,119,0.0,1.0,93,0.00,,,0.00,Wunderground v.1.15,2013-08-17 23:00:00,
2013-08-17 19:06:00,62.0,60.0,30.04,ESE,119,0.0,2.0,93,0.00,,,0.01,Wunderground v.1.15,2013-08-17 23:06:00,
2013-08-17 19:11:00,62.0,60.0,30.04,ENE,65,0.0,2.0,93,0.00,,,0.01,Wunderground v.1.15,2013-08-17 23:11:00,
2013-08-17 19:17:00,62.0,60.3,30.04,ENE,65,0.0,2.0,94,0.00,,,0.01,Wunderground v.1.15,2013-08-17 23:17:00,
2013-08-17 19:23:00,62.0,60.3,30.04,ENE,65,0.0,2.0,94,0.00,,,0.01,Wunderground v.1.15,2013-08-17 23:23:00,
2013-08-17 19:28:00,61.8,60.1,30.04,ENE,65,0.0,2.0,94,0.00,,,0.01,Wunderground v.1.15,2013-08-17 23:28:00,
2013-08-17 19:34:00,61.8,60.1,30.04,ENE,69,0.0,2.0,94,0.00,,,0.01,Wunderground v.1.15,2013-08-17 23:34:00,
2013-08-17 19:39:00,61.6,60.2,30.04,ENE,69,0.0,2.0,95,0.00,,,0.01,Wunderground v.1.15,2013-08-17 23:39:00,
2013-08-17 19:44:00,61.6,60.2,30.04,ENE,69,0.0,2.0,95,0.00,,,0.01,Wunderground v.1.15,2013-08-17 23:44:00,
2013-08-17 19:49:00,61.6,60.2,30.04,ENE,69,0.0,2.0,95,0.00,,,0.01,Wunderground v.1.15,2013-08-17 23:49:00,
2013-08-17 19:55:00,61.5,60.1,30.04,ESE,118,0.0,2.0,95,0.00,,,0.01,Wunderground v.1.15,2013-08-17 23:55:00,
2013-08-17 20:00:00,61.5,60.1,30.04,ESE,118,0.0,2.0,95,0.00,,,0.01,Wunderground v.1.15,2013-08-18 00:00:00,
2013-08-17 20:06:00,61.5,60.3,30.04,ESE,118,0.0,2.0,96,0.00,,,0.01,Wunderground v.1.15,2013-08-18 00:06:00,
2013-08-17 20:12:00,61.5,60.3,30.04,ESE,118,0.0,2.0,96,0.00,,,0.01,Wunderground v.1.15,2013-08-18 00:12:00,
2013-08-17 20:17:00,61.5,60.3,30.04,ESE,118,0.0,2.0,96,0.00,,,0.01,Wunderground v.1.15,2013-08-18 00:17:00,
2013-08-17 20:23:00,61.5,60.3,30.04,NW,316,0.0,2.0,96,0.00,,,0.01,Wunderground v.1.15,2013-08-18 00:23:00,
2013-08-17 20:28:00,61.5,60.3,30.04,North,10,0.0,2.0,96,0.00,,,0.01,Wunderground v.1.15,2013-08-18 00:28:00,
2013-08-17 20:34:00,61.5,60.3,30.05,North,11,0.0,3.0,96,0.00,,,0.01,Wunderground v.1.15,2013-08-18 00:34:00,
2013-08-17 20:40:00,61.3,60.2,30.05,North,10,0.0,3.0,96,0.00,,,0.01,Wunderground v.1.15,2013-08-18 00:40:00,
2013-08-17 20:45:00,61.3,60.2,30.06,North,11,0.0,3.0,96,0.00,,,0.01,Wunderground v.1.15,2013-08-18 00:45:00,
2013-08-17 20:51:00,61.3,60.2,30.06,North,10,0.0,3.0,96,0.00,,,0.01,Wunderground v.1.15,2013-08-18 00:51:00,
2013-08-17 20:56:00,61.3,60.2,30.06,North,10,0.0,3.0,96,0.00,,,0.02,Wunderground v.1.15,2013-08-18 00:56:00,
2013-08-17 21:02:00,61.3,60.2,30.05,NNE,18,0.0,2.0,96,0.00,,,0.02,Wunderground v.1.15,2013-08-18 01:02:00,
2013-08-17 21:07:00,61.2,60.1,30.05,NNE,18,1.0,2.0,96,0.00,,,0.02,Wunderground v.1.15,2013-08-18 01:07:00,
2013-08-17 21:13:00,61.2,60.1,30.05,NNE,18,0.0,2.0,96,0.00,,,0.02,Wunderground v.1.15,2013-08-18 01:13:00,
2013-08-17 21:19:00,61.2,60.1,30.06,NNE,18,0.0,2.0,96,0.00,,,0.02,Wunderground v.1.15,2013-08-18 01:19:00,
2013-08-17 21:24:00,61.0,59.9,30.06,NE,38,0.0,2.0,96,0.00,,,0.02,Wunderground v.1.15,2013-08-18 01:24:00,
2013-08-17 21:30:00,60.9,59.8,30.06,NE,38,0.0,2.0,96,0.00,,,0.02,Wunderground v.1.15,2013-08-18 01:30:00,
2013-08-17 21:35:00,60.9,59.8,30.06,NE,38,0.0,4.0,96,0.00,,,0.02,Wunderground v.1.15,2013-08-18 01:35:00,
2013-08-17 21:40:00,60.9,59.8,30.06,NE,38,0.0,4.0,96,0.00,,,0.02,Wunderground v.1.15,2013-08-18 01:40:00,
2013-08-17 21:46:00,61.0,59.9,30.06,NE,38,0.0,4.0,96,0.00,,,0.02,Wunderground v.1.15,2013-08-18 01:46:00,
2013-08-17 21:51:00,61.0,59.9,30.06,NE,38,0.0,4.0,96,0.00,,,0.02,Wunderground v.1.15,2013-08-18 01:51:00,
2013-08-17 21:57:00,60.9,59.8,30.06,NE,38,0.0,4.0,96,0.00,,,0.02,Wunderground v.1.15,2013-08-18 01:57:00,
2013-08-17 22:03:00,60.9,59.8,30.07,NE,38,0.0,2.0,96,0.00,,,0.02,Wunderground v.1.15,2013-08-18 02:03:00,
2013-08-17 22:08:00,60.9,59.8,30.07,NE,38,0.0,2.0,96,0.00,,,0.02,Wunderground v.1.15,2013-08-18 02:08:00,
2013-08-17 22:14:00,60.9,59.8,30.07,NE,38,0.0,3.0,96,0.00,,,0.02,Wunderground v.1.15,2013-08-18 02:14:00,
2013-08-17 22:19:00,60.9,59.5,30.07,NE,38,0.0,3.0,95,0.00,,,0.02,Wunderground v.1.15,2013-08-18 02:19:00,
2013-08-17 22:24:00,60.7,59.3,30.07,NE,38,0.0,2.0,95,0.00,,,0.02,Wunderground v.1.15,2013-08-18 02:24:00,
2013-08-17 22:30:00,60.9,59.5,30.07,NE,38,0.0,2.0,95,0.00,,,0.02,Wunderground v.1.15,2013-08-18 02:30:00,
2013-08-17 22:35:00,60.9,59.5,30.07,NE,38,0.0,4.0,95,0.00,,,0.02,Wunderground v.1.15,2013-08-18 02:35:00,
2013-08-17 22:41:00,60.9,59.5,30.07,NE,56,0.0,4.0,95,0.00,,,0.02,Wunderground v.1.15,2013-08-18 02:41:00,
2013-08-17 22:47:00,60.7,59.3,30.08,NE,42,1.0,4.0,95,0.00,,,0.02,Wunderground v.1.15,2013-08-18 02:47:00,
2013-08-17 22:53:00,60.7,59.3,30.08,NE,42,0.0,4.0,95,0.00,,,0.02,Wunderground v.1.15,2013-08-18 02:53:00,
2013-08-17 22:59:00,60.7,59.3,30.08,NE,44,0.0,4.0,95,0.00,,,0.02,Wunderground v.1.15,2013-08-18 02:59:00,
2013-08-17 23:04:00,60.7,59.3,30.08,NE,49,1.0,5.0,95,0.00,,,0.02,Wunderground v.1.15,2013-08-18 03:04:00,
2013-08-17 23:10:00,60.7,59.3,30.08,NE,38,2.0,5.0,95,0.00,,,0.02,Wunderground v.1.15,2013-08-18 03:10:00,
2013-08-17 23:16:00,60.7,59.3,30.09,ENE,61,0.0,5.0,95,0.00,,,0.02,Wunderground v.1.15,2013-08-18 03:16:00,
2013-08-17 23:22:00,60.7,59.3,30.09,ENE,60,1.0,1.0,95,0.00,,,0.02,Wunderground v.1.15,2013-08-18 03:22:00,
2013-08-17 23:27:00,60.5,59.1,30.09,NE,53,2.0,5.0,95,0.00,,,0.02,Wunderground v.1.15,2013-08-18 03:27:00,
2013-08-17 23:33:00,60.5,58.8,30.08,NE,52,2.0,9.0,94,0.00,,,0.02,Wunderground v.1.15,2013-08-18 03:33:00,
2013-08-17 23:38:00,60.5,58.8,30.08,NNE,24,1.0,9.0,94,0.00,,,0.02,Wunderground v.1.15,2013-08-18 03:38:00,
2013-08-17 23:44:00,60.5,59.1,30.08,NE,35,1.0,9.0,95,0.00,,,0.02,Wunderground v.1.15,2013-08-18 03:44:00,
2013-08-17 23:49:00,60.5,59.1,30.08,NE,41,1.0,9.0,95,0.00,,,0.02,Wunderground v.1.15,2013-08-18 03:49:00,
2013-08-17 23:55:00,60.5,58.8,30.08,NE,48,0.0,9.0,94,0.00,,,0.02,Wunderground v.1.15,2013-08-18 03:55:00,